Weather History for Morris, MN

Change the Weather History Date:

Monday, November 11, 2013

  Actual Average Record
Temperature  
Mean Temperature 15 °F -  
Max Temperature 32 °F 39 °F 66 °F (2005)
Min Temperature 6 °F 22 °F 6 °F (2006)
Degree Days  
Heating Degree Days 50    
Moisture  
Dew Point 7 °F    
Average Humidity 68    
Maximum Humidity 85    
Minimum Humidity 27    
Precipitation  
Precipitation 0.00 in - - ()
Sea Level Pressure  
Sea Level Pressure 30.54 in    
Wind  
Wind Speed 18 mph (NNW)    
Max Wind Speed 24 mph    
Max Gust Speed 30 mph    
Visibility 10 miles    
Events      
Averages and records for this station are not official NWS values.
T = Trace of Precipitation, MM = Missing Value Source: NWS Daily Summary

Daily Weather History Graph

Daily Weather History Graph

Search for Another Location

Airport:

Trip Planner

Search our weather history database for the weather conditions in past years. The results will help you decide how hot, cold, wet, or windy it might be!

Date:

Astronomy

Nov. 11, 2013 Rise Set
Actual Time 7:17 AM CST 4:57 PM CST
Civil Twilight 6:46 AM CST 5:29 PM CST
Nautical Twilight 6:10 AM CST 6:04 PM CST
Astronomical Twilight 5:35 AM CST 6:39 PM CST
Moon 1:54 PM CST (11/11) 12:46 AM CST (11/11)
Length of Visible Light 10h 43m
Length of Day
9h 39m
Waxing Gibbous, 66% of the Moon is Illuminated
Nov 11
Waxing Gibbous
Nov 17
Full
Nov 25
Last Quarter
Dec 2
New
Dec 9
First Quarter

Hourly Weather History & Observations

Time (CST) Temp. Windchill Dew Point Humidity Pressure Visibility Wind Dir Wind Speed Gust Speed Precip Events Conditions
12:05 AM 24.8 °F 11.5 °F 15.8 °F 69% 30.23 in 10.0 mi NNW 17.3 mph 27.6 mph N/A   Overcast
12:25 AM 23.0 °F 8.3 °F 15.8 °F 74% 30.26 in 10.0 mi NNW 19.6 mph 24.2 mph N/A   Overcast
12:45 AM 21.2 °F 5.2 °F 15.8 °F 80% 30.26 in 10.0 mi NNW 21.9 mph - N/A   Overcast
1:05 AM 21.2 °F 6.0 °F 14.0 °F 74% 30.26 in 10.0 mi North 19.6 mph 25.3 mph N/A   Overcast
1:25 AM 21.2 °F 5.2 °F 12.2 °F 68% 30.28 in 10.0 mi NNW 21.9 mph 27.6 mph N/A   Overcast
1:45 AM 21.2 °F 5.6 °F 10.4 °F 63% 30.29 in 10.0 mi NNW 20.7 mph 28.8 mph N/A   Overcast
2:05 AM 21.2 °F 4.9 °F 10.4 °F 63% 30.29 in 10.0 mi NNW 23.0 mph - N/A   Overcast
2:25 AM 19.4 °F 4.5 °F 10.4 °F 68% 30.30 in 10.0 mi NNW 17.3 mph - N/A   Overcast
2:45 AM 19.4 °F 3.6 °F 10.4 °F 68% 30.31 in 10.0 mi NNW 19.6 mph - N/A   Unknown
3:05 AM 19.4 °F 3.2 °F 10.4 °F 68% 30.32 in 10.0 mi NNW 20.7 mph - N/A   Unknown
3:25 AM 19.4 °F 3.6 °F 8.6 °F 63% 30.32 in 10.0 mi NNW 19.6 mph - N/A   Unknown
3:45 AM 19.4 °F 4.1 °F 8.6 °F 63% 30.33 in 10.0 mi NNW 18.4 mph 25.3 mph N/A   Unknown
4:05 AM 17.6 °F 1.3 °F 8.6 °F 68% 30.33 in 10.0 mi NNW 19.6 mph 26.5 mph N/A   Unknown
4:25 AM 17.6 °F 0.9 °F 8.6 °F 68% 30.34 in 10.0 mi NNW 20.7 mph 27.6 mph N/A   Unknown
4:45 AM 17.6 °F 1.7 °F 10.4 °F 73% 30.36 in 10.0 mi North 18.4 mph 23.0 mph N/A   Unknown
5:05 AM 17.6 °F 1.3 °F 10.4 °F 73% 30.37 in 10.0 mi North 19.6 mph 24.2 mph N/A   Unknown
5:25 AM 17.6 °F 0.5 °F 8.6 °F 68% 30.39 in 10.0 mi North 21.9 mph - N/A   Unknown
5:45 AM 15.8 °F -1.5 °F 6.8 °F 68% 30.40 in 10.0 mi North 20.7 mph 26.5 mph N/A   Unknown
6:05 AM 15.8 °F -1.5 °F 6.8 °F 68% 30.41 in 10.0 mi North 20.7 mph 26.5 mph N/A   Unknown
6:25 AM 15.8 °F -1.1 °F 6.8 °F 68% 30.42 in 10.0 mi NNW 19.6 mph 27.6 mph N/A   Unknown
6:45 AM 15.8 °F -1.1 °F 6.8 °F 68% 30.44 in 10.0 mi North 19.6 mph 25.3 mph N/A   Unknown
7:05 AM 15.8 °F -1.1 °F 6.8 °F 68% 30.45 in 10.0 mi NNW 19.6 mph - N/A   Unknown
7:25 AM 15.8 °F -1.9 °F 6.8 °F 68% 30.46 in 10.0 mi NNW 21.9 mph 26.5 mph N/A   Unknown
7:45 AM 14.0 °F -4.3 °F 6.8 °F 73% 30.47 in 10.0 mi North 21.9 mph 29.9 mph N/A   Unknown
8:05 AM 14.0 °F -4.3 °F 6.8 °F 73% 30.49 in 10.0 mi NNW 21.9 mph 27.6 mph N/A   Clear
8:25 AM 14.0 °F -5.1 °F 6.8 °F 73% 30.50 in 10.0 mi NNW 24.2 mph 28.8 mph N/A   Clear
8:45 AM 14.0 °F -3.9 °F 6.8 °F 73% 30.51 in 10.0 mi NNW 20.7 mph 26.5 mph N/A   Clear
9:05 AM 14.0 °F -3.4 °F 5.0 °F 67% 30.52 in 10.0 mi NNW 19.6 mph 26.5 mph N/A   Clear
9:25 AM 15.8 °F -1.1 °F 6.8 °F 68% 30.53 in 10.0 mi NNW 19.6 mph - N/A   Scattered Clouds
9:45 AM 15.8 °F -1.1 °F 6.8 °F 68% 30.54 in 10.0 mi North 19.6 mph 27.6 mph N/A   Mostly Cloudy
10:05 AM 15.8 °F -0.6 °F 6.8 °F 68% 30.55 in 10.0 mi North 18.4 mph 25.3 mph N/A   Mostly Cloudy
10:25 AM 15.8 °F -0.6 °F 6.8 °F 68% 30.54 in 10.0 mi NNW 18.4 mph 25.3 mph N/A   Overcast
10:45 AM 15.8 °F -1.1 °F 6.8 °F 68% 30.56 in 10.0 mi NNW 19.6 mph 23.0 mph N/A   Overcast
11:05 AM 17.6 °F 0.5 °F 6.8 °F 63% 30.56 in 10.0 mi NNW 21.9 mph 26.5 mph N/A   Mostly Cloudy
11:25 AM 19.4 °F 3.6 °F 6.8 °F 58% 30.57 in 10.0 mi NNW 19.6 mph 24.2 mph N/A   Scattered Clouds
11:45 AM 19.4 °F 4.1 °F 6.8 °F 58% 30.56 in 10.0 mi North 18.4 mph 27.6 mph N/A   Scattered Clouds
12:05 PM 19.4 °F 3.2 °F 6.8 °F 58% 30.56 in 10.0 mi NNW 20.7 mph 24.2 mph N/A   Mostly Cloudy
12:25 PM 19.4 °F 2.8 °F 6.8 °F 58% 30.56 in 10.0 mi NNW 21.9 mph 28.8 mph N/A   Mostly Cloudy
12:45 PM 19.4 °F 3.2 °F 6.8 °F 58% 30.57 in 10.0 mi NNW 20.7 mph 28.8 mph N/A   Mostly Cloudy
1:05 PM 21.2 °F 6.4 °F 6.8 °F 54% 30.57 in 10.0 mi NNW 18.4 mph 26.5 mph N/A   Mostly Cloudy
1:25 PM 21.2 °F 5.2 °F 6.8 °F 54% 30.57 in 10.0 mi NNW 21.9 mph 26.5 mph N/A   Mostly Cloudy
1:45 PM 19.4 °F 3.6 °F 6.8 °F 58% 30.58 in 10.0 mi NNW 19.6 mph 26.5 mph N/A   Mostly Cloudy
2:05 PM 19.4 °F 3.2 °F 6.8 °F 58% 30.59 in 10.0 mi NNW 20.7 mph 25.3 mph N/A   Scattered Clouds
2:25 PM 19.4 °F 3.6 °F 6.8 °F 58% 30.59 in 10.0 mi NNW 19.6 mph 25.3 mph N/A   Scattered Clouds
2:45 PM 19.4 °F 3.2 °F 6.8 °F 58% 30.59 in 10.0 mi NNW 20.7 mph 27.6 mph N/A   Clear
3:05 PM 19.4 °F 3.6 °F 6.8 °F 58% 30.60 in 10.0 mi NNW 19.6 mph 26.5 mph N/A   Scattered Clouds
3:25 PM 19.4 °F 3.6 °F 6.8 °F 58% 30.60 in 10.0 mi NNW 19.6 mph 24.2 mph N/A   Scattered Clouds
3:45 PM 19.4 °F 3.6 °F 6.8 °F 58% 30.61 in 10.0 mi NNW 19.6 mph 25.3 mph N/A   Clear
4:05 PM 17.6 °F 2.2 °F 6.8 °F 63% 30.62 in 10.0 mi NNW 17.3 mph 20.7 mph N/A   Clear
4:25 PM 17.6 °F 2.2 °F 6.8 °F 63% 30.63 in 10.0 mi NNW 17.3 mph 23.0 mph N/A   Clear
4:45 PM 15.8 °F 2.1 °F 6.8 °F 68% 30.64 in 10.0 mi NNW 12.7 mph - N/A   Clear
5:05 PM 15.8 °F 1.4 °F 6.8 °F 68% 30.64 in 10.0 mi NW 13.8 mph - N/A   Clear
5:25 PM 15.8 °F 2.1 °F 6.8 °F 68% 30.65 in 10.0 mi NNW 12.7 mph - N/A   Clear
5:45 PM 14.0 °F -0.2 °F 6.8 °F 73% 30.66 in 10.0 mi NNW 12.7 mph - N/A   Clear
6:04 PM 14.0 °F 0.5 °F 6.8 °F 73% 30.66 in 10.0 mi NNW 11.5 mph - N/A   Clear
6:25 PM 14.0 °F -0.8 °F 6.8 °F 73% 30.67 in 10.0 mi NNW 13.8 mph - N/A   Clear
6:45 PM 15.8 °F 1.4 °F 6.8 °F 68% 30.69 in 10.0 mi NNW 13.8 mph 18.4 mph N/A   Scattered Clouds
7:05 PM 14.0 °F -0.2 °F 6.8 °F 73% 30.70 in 10.0 mi NNW 12.7 mph - N/A   Scattered Clouds
7:25 PM 14.0 °F -0.8 °F 6.8 °F 73% 30.70 in 10.0 mi NNW 13.8 mph - N/A   Clear
7:45 PM 14.0 °F 0.5 °F 6.8 °F 73% 30.70 in 10.0 mi NNW 11.5 mph - N/A   Clear
8:05 PM 12.2 °F -1.0 °F 6.8 °F 79% 30.70 in 10.0 mi NNW 10.4 mph - N/A   Clear
8:25 PM 12.2 °F -0.2 °F 6.8 °F 79% 30.70 in 10.0 mi NNW 9.2 mph - N/A   Clear
8:45 PM 12.2 °F -0.2 °F 6.8 °F 79% 30.71 in 10.0 mi NNW 9.2 mph - N/A   Clear
9:05 PM 12.2 °F 1.7 °F 6.8 °F 79% 30.71 in 10.0 mi NNW 6.9 mph - N/A   Clear
9:25 PM 10.4 °F -0.4 °F 6.8 °F 85% 30.72 in 10.0 mi NNW 6.9 mph - N/A   Clear
9:45 PM 10.4 °F 2.2 °F 5.0 °F 79% 30.72 in 10.0 mi NW 4.6 mph - N/A   Clear
10:04 PM 8.6 °F -1.3 °F 5.0 °F 85% 30.73 in 10.0 mi NW 5.8 mph - N/A   Clear
10:25 PM 8.6 °F -2.6 °F 5.0 °F 85% 30.74 in 10.0 mi NW 6.9 mph - N/A   Clear
10:45 PM 8.6 °F -2.6 °F 3.2 °F 79% 30.75 in 10.0 mi NW 6.9 mph - N/A   Clear
11:03 PM 6.8 °F -3.5 °F 1.4 °F 79% 30.75 in 10.0 mi NW 5.8 mph - N/A   Clear
11:25 PM 6.8 °F -2.0 °F 3.2 °F 85% 30.75 in 10.0 mi WNW 4.6 mph - N/A   Clear
11:45 PM 6.8 °F -3.5 °F 1.4 °F 79% 30.75 in 10.0 mi WNW 5.8 mph - N/A   Unknown
11:56 PM 32.0 °F 26.4 °F 1.4 °F 27% 30.76 in 10.0 mi WNW 5.8 mph - N/A   Unknown